Location: Stara Lesna
(49.1528°N, 20.2911°E)
Time: 09:20:32
(UTC+02:00)

Cosmos 44 Rocket - Pass Details

Date: 13 July 2020
Orbit: 651 x 739 km, 65.1° (Epoch: 05 August)

Event Time Altitude Azimuth Distance (km) Brightness Sun altitude
Exits shadow 00:37:12 23° 234° (SW) 1,401 4.5 -19.0°
Maximum altitude 00:40:05 66° 312° (NW) 724 3.5 -19.0°
Drops below altitude 10° 00:44:52 10° 35° (NE) 2,115 6.6 -19.1°
Sets 00:47:14 0° 38° (NE) 3,047 7.5 -19.1°
